CW1035 Weather Reports


time (UTC)temp
C
wind
direction
speed
KPH
gust
KPH
rain 1hr
cm
rain 24hr
cm
rain mn
cm
humidity
%
barometer
mb
20260503224202 22 277 1.6 16.1 0.00 0.00 0.00 40 1012.7
20260503223702 22 302 4.8 16.1 0.00 0.00 0.00 40 1012.8
20260503223202 22 291 12.9 14.5 0.00 0.00 0.00 39 1012.9
20260503222702 22 240 6.4 14.5 0.00 0.00 0.00 40 1013.0
20260503222201 22 319 6.4 16.1 0.00 0.00 0.00 41 1013.0
20260503221201 22 37 6.4 14.5 0.00 0.00 0.00 43 1013.2
20260503220701 22 271 6.4 12.9 0.00 0.00 0.00 45 1013.3
20260503220202 21 315 1.6 16.1 0.00 0.00 0.00 46 1013.3
20260503215701 21 292 6.4 16.1 0.00 0.00 0.00 46 1013.3
20260503215201 21 292 8.0 16.1 0.00 0.00 0.00 46 1013.4
20260503214701 21 272 14.5 17.7 0.00 0.00 0.00 46 1013.4
20260503213200 21 290 8.0 14.5 0.00 0.00 0.00 51 1013.6
20260503212201 21 274 4.8 17.7 0.00 0.00 0.00 54 1013.7
20260503211700 21 300 4.8 17.7 0.00 0.00 0.00 54 1013.7
20260503211200 20 264 4.8 16.1 0.00 0.00 0.00 55 1013.7
20260503210700 20 280 6.4 12.9 0.00 0.00 0.00 56 1013.7
20260503210200 20 255 6.4 16.1 0.00 0.00 0.00 56 1013.9
20260503205700 20 288 4.8 16.1 0.00 0.00 0.00 55 1013.9
20260503204700 20 284 3.2 14.5 0.00 0.00 0.00 55 1013.9
20260503204200 20 335 3.2 14.5 0.00 0.00 0.00 54 1014.0
20260503203700 20 308 11.3 12.9 0.00 0.00 0.00 54 1013.9
20260503203200 20 340 1.6 12.9 0.00 0.00 0.00 53 1014.0
20260503201700 20 347 6.4 16.1 0.00 0.00 0.00 55 1014.0
20260503201159 20 319 11.3 14.5 0.00 0.00 0.00 54 1014.0
20260503200659 20 283 3.2 14.5 0.00 0.00 0.00 55 1014.2
20260503200159 20 295 8.0 12.9 0.00 0.00 0.00 55 1014.2
20260503195659 20 278 4.8 11.3 0.00 0.00 0.00 56 1014.4
20260503195159 20 269 6.4 14.5 0.00 0.00 0.00 57 1014.3
20260503194659 19 303 3.2 14.5 0.00 0.00 0.00 58 1014.5
20260503194158 19 32 6.4 14.5 0.00 0.00 0.00 59 1014.6
20260503193658 18 285 9.7 16.1 0.00 0.00 0.00 59 1014.6
20260503192158 18 347 9.7 12.9 0.00 0.00 0.00 59 1014.8
20260503191659 18 11 6.4 14.5 0.00 0.00 0.00 60 1014.8
20260503190658 18 34 4.8 12.9 0.00 0.00 0.00 61 1014.9
20260503190158 18 317 1.6 12.9 0.00 0.00 0.00 60 1014.9
20260503185158 18 304 8.0 16.1 0.00 0.00 0.00 60 1015.0
20260503183157 18 300 8.0 16.1 0.00 0.00 0.00 62 1015.1
20260503182658 18 284 11.3 16.1 0.00 0.00 0.00 61 1015.2
20260503182158 18 264 3.2 14.5 0.00 0.00 0.00 63 1015.2
20260503181657 18 322 6.4 16.1 0.00 0.00 0.00 62 1015.3
20260503181157 17 247 0.0 16.1 0.00 0.00 0.00 65 1015.3
20260503180657 17 276 11.3 16.1 0.00 0.00 0.00 63 1015.4
20260503180157 17 301 3.2 17.7 0.00 0.00 0.00 64 1015.4
20260503175657 17 283 4.8 17.7 0.00 0.00 0.00 64 1015.5
20260503175156 17 270 8.0 17.7 0.00 0.00 0.00 66 1015.5
20260503174657 17 271 9.7 17.7 0.00 0.00 0.00 67 1015.5
20260503174156 17 330 4.8 17.7 0.00 0.00 0.00 67 1015.6
20260503173656 17 271 9.7 19.3 0.00 0.00 0.00 66 1015.6
20260503173157 16 338 3.2 19.3 0.00 0.00 0.00 68 1015.6
20260503172656 16 223 3.2 16.1 0.00 0.00 0.00 69 1015.6
20260503172156 16 262 11.3 17.7 0.00 0.00 0.00 68 1015.6
20260503171656 16 295 3.2 17.7 0.00 0.00 0.00 67 1015.7
20260503171156 16 288 4.8 16.1 0.00 0.00 0.00 68 1015.8
20260503170656 16 274 8.0 16.1 0.00 0.00 0.00 67 1015.8
20260503170156 16 293 6.4 16.1 0.00 0.00 0.00 68 1015.8
20260503160155 16 274 11.3 14.5 0.00 0.00 0.00 69 1015.9
20260503150654 15 258 0.0 12.9 0.00 0.00 0.00 71 1016.0
20260503150154 15 288 8.0 17.7 0.00 0.00 0.00 70 1016.1
20260503140153 15 300 8.0 12.9 0.00 0.00 0.00 69 1015.6
20260503131152 15 244 6.4 11.3 0.00 0.00 0.00 70 1015.5
20260503130652 15 253 6.4 8.0 0.00 0.00 0.00 69 1015.5
20260503130152 15 265 3.2 6.4 0.00 0.00 0.00 69 1015.6
20260503110650 15 283 3.2 9.7 0.00 0.00 0.00 67 1015.7
20260503110149 15 264 4.8 9.7 0.00 0.00 0.00 67 1015.8
20260503100148 13 293 6.4 6.4 0.00 0.00 0.00 71 1015.6
20260503090148 12 253 4.8 8.0 0.00 0.00 0.00 78 1015.6
20260503080646 12 278 3.2 11.3 0.00 0.00 0.00 78 1015.5
20260503080147 12 273 4.8 12.9 0.00 0.00 0.00 77 1015.5
20260503072646 13 291 6.4 11.3 0.00 0.00 0.00 75 1015.4
20260503072146 13 252 8.0 11.3 0.00 0.00 0.00 75 1015.4
20260503071646 13 281 3.2 9.7 0.00 0.00 0.00 74 1015.4
20260503071146 13 278 6.4 9.7 0.00 0.00 0.00 73 1015.4
20260503070646 14 236 3.2 11.3 0.00 0.00 0.00 73 1015.4
20260503070146 14 289 9.7 11.3 0.00 0.00 0.00 71 1015.4
20260503060144 17 271 0.0 8.0 0.00 0.00 0.00 54 1015.3
20260503054144 17 277 3.2 8.0 0.00 0.00 0.00 55 1015.2
20260503053644 17 277 6.4 8.0 0.00 0.00 0.00 54 1015.2
20260503052644 18 244 6.4 6.4 0.00 0.00 0.00 54 1015.3
20260503052144 18 252 3.2 6.4 0.00 0.00 0.00 54 1015.3
20260503051644 18 264 3.2 6.4 0.00 0.00 0.00 53 1015.3
20260503051144 18 297 1.6 8.0 0.00 0.00 0.00 53 1015.3
20260503050644 18 289 4.8 8.0 0.00 0.00 0.00 54 1015.3
20260503050144 18 301 1.6 9.7 0.00 0.00 0.00 53 1015.2
20260503045643 18 284 1.6 11.3 0.00 0.00 0.00 52 1015.3
20260503045143 18 295 3.2 12.9 0.00 0.00 0.00 53 1015.2
20260503044643 18 310 6.4 12.9 0.00 0.00 0.00 53 1015.2
20260503044143 18 262 3.2 11.3 0.00 0.00 0.00 54 1015.2
20260503043643 18 260 3.2 11.3 0.00 0.00 0.00 53 1015.1
20260503043143 18 283 4.8 11.3 0.00 0.00 0.00 53 1015.1
20260503042643 18 271 3.2 9.7 0.00 0.00 0.00 53 1015.0
20260503042143 18 250 1.6 8.0 0.00 0.00 0.00 53 1015.0
20260503041143 18 272 1.6 4.8 0.00 0.00 0.00 53 1015.0
20260503040642 18 250 0.0 6.4 0.00 0.00 0.00 52 1015.0
20260503035143 18 249 3.2 9.7 0.00 0.00 0.00 51 1014.6
20260503034642 18 271 3.2 11.3 0.00 0.00 0.00 52 1014.6
20260503034142 18 285 8.0 11.3 0.00 0.00 0.00 51 1014.6
20260503033642 18 268 3.2 9.7 0.00 0.00 0.00 52 1014.5
20260503032641 19 297 6.4 9.7 0.00 0.00 0.00 52 1014.5
20260503032142 19 261 3.2 9.7 0.00 0.00 0.00 52 1014.4
20260503031642 19 278 3.2 9.7 0.00 0.00 0.00 52 1014.5
20260503031142 20 280 6.4 9.7 0.00 0.00 0.00 52 1014.5
20260503030141 20 280 0.0 8.0 0.00 0.00 0.00 52 1014.5
20260503025642 20 287 0.0 8.0 0.00 0.00 0.00 51 1014.4
20260503025141 20 276 4.8 8.0 0.00 0.00 0.00 50 1014.5
20260503024641 20 252 0.0 6.4 0.00 0.00 0.00 50 1014.4
20260503024141 20 276 3.2 11.3 0.00 0.00 0.00 50 1014.4
20260503023641 20 276 3.2 11.3 0.00 0.00 0.00 50 1014.5
20260503023141 20 266 3.2 12.9 0.00 0.00 0.00 50 1014.5
20260503022641 21 260 3.2 12.9 0.00 0.00 0.00 49 1014.4
20260503021141 21 276 3.2 11.3 0.00 0.00 0.00 48 1014.5
20260503020640 21 283 9.7 11.3 0.00 0.00 0.00 47 1014.5
20260503020140 21 257 8.0 12.9 0.00 0.00 0.00 47 1014.6
20260503015640 21 262 3.2 12.9 0.00 0.00 0.00 47 1014.6
20260503015140 21 315 0.0 11.3 0.00 0.00 0.00 48 1014.6
20260503014640 21 285 1.6 14.5 0.00 0.00 0.00 48 1014.6
20260503014140 21 303 8.0 14.5 0.00 0.00 0.00 49 1014.6
20260503013640 21 246 4.8 17.7 0.00 0.00 0.00 49 1014.6
20260503013139 21 268 9.7 17.7 0.00 0.00 0.00 49 1014.7
20260503012640 21 300 11.3 14.5 0.00 0.00 0.00 48 1014.7
20260503012139 21 306 6.4 12.9 0.00 0.00 0.00 48 1014.8
20260503011639 21 257 4.8 16.1 0.00 0.00 0.00 48 1014.8
20260503011139 21 274 4.8 16.1 0.00 0.00 0.00 49 1014.9
20260503010639 21 263 4.8 16.1 0.00 0.00 0.00 48 1014.9
20260503010139 21 264 0.0 16.1 0.00 0.00 0.00 49 1014.9
20260503005640 21 330 9.7 12.9 0.00 0.00 0.00 49 1015.0
20260503005139 21 272 9.7 12.9 0.00 0.00 0.00 49 1014.9
20260503004639 21 266 4.8 12.9 0.00 0.00 0.00 49 1014.9
20260503004139 21 345 1.6 17.7 0.00 0.00 0.00 50 1015.1
20260503003639 21 261 9.7 17.7 0.00 0.00 0.00 50 1015.0
20260503002639 21 300 6.4 19.3 0.00 0.00 0.00 51 1015.0
20260503002138 21 266 8.0 19.3 0.00 0.00 0.00 51 1015.1
20260503001639 21 264 4.8 16.1 0.00 0.00 0.00 51 1015.0
20260503001138 20 311 3.2 16.1 0.00 0.00 0.00 52 1015.1
20260503000639 21 281 4.8 14.5 0.00 0.00 0.00 51 1015.1
20260503000138 21 328 12.9 16.1 0.00 0.00 0.00 51 1015.2
20260502235638 21 295 3.2 17.7 0.00 0.00 0.00 52 1015.2
20260502235138 20 290 4.8 17.7 0.00 0.00 0.00 53 1015.3
20260502234638 20 287 6.4 19.3 0.00 0.00 0.00 52 1015.3
20260502234138 20 263 6.4 19.3 0.00 0.00 0.00 52 1015.4
20260502233138 20 286 8.0 17.7 0.00 0.00 0.00 53 1015.4
20260502232638 20 301 6.4 17.7 0.00 0.00 0.00 54 1015.6
20260502232138 20 309 9.7 19.3 0.00 0.00 0.00 55 1015.7
20260502231638 20 304 14.5 19.3 0.00 0.00 0.00 55 1015.7
20260502230637 20 294 6.4 16.1 0.00 0.00 0.00 55 1015.9
20260502230207 20 307 12.9 16.1 0.00 0.00 0.00 54 1016.0
20260502225137 20 335 6.4 14.5 0.00 0.00 0.00 53 1016.1